Regional Weather Roundup
Issued by NWS

Home | Current Version | Previous Version | Graphics & Text | Print | Product List | Glossary On
Versions: 1 2 3 4 5 6 7 8 9 10 11 12 13 14 15 16 17 18 19 20 21 22 23 24 25 26 27 28 29 30 31 32 33 34 35 36 37 38 39 40 41 42 43 44 45 46 47 48 49 50
000
ASUS43 KMPX 210410
RWRMN
WEATHER ROUNDUP FOR MINNESOTA
NATIONAL WEATHER SERVICE TWIN CITIES/CHANHASSEN MN
1000 PM CST SAT DEC 20 2014


NOTE: "FAIR" INDICATES FEW OR NO CLOUDS BELOW 12,000 FEET WITH NO
SIGNIFICANT WEATHER AND/OR OBSTRUCTIONS TO VISIBILITY. N/A MEANS
CURRENT SKY AND/OR WEATHER CONDITIONS ARE NOT AVAILABLE.

MNZ060>063-068>070-210500-
   Twin Cities Metro

CITY           SKY/WX    TMP DP  RH WIND       PRES   REMARKS
TWIN CITIES    CLOUDY    31  26  82 SE10      30.09F WCI  22
ST PAUL        CLOUDY    31  27  85 S10       30.12S WCI  22
CRYSTAL        CLOUDY    32  26  78 S10       30.07F WCI  24
BLAINE         CLOUDY    34  30  86 S9        30.08F WCI  26
LAKEVILLE      CLOUDY    28  27  93 SE5       30.08F WCI  23
EDEN PRAIRIE   CLOUDY    31  26  82 SE10      30.07F WCI  22
SOUTH ST PAUL  CLOUDY    32  27  83 S5        30.10F WCI  27
LAKE ELMO      CLOUDY    32  28  86 S15G21    30.11S WCI  22
$$
MNZ001>005-007-008-013>017-022>024-027-028-210500-
   Northwest Minnesota

CITY           SKY/WX    TMP DP  RH WIND       PRES   REMARKS
BEMIDJI        CLOUDY    28  28  96 S10       29.92F FOG     WCI  19
HALLOCK        CLOUDY    30  28  93 CALM      29.86F FOG
ROSEAU         CLOUDY    30  27  86 S9        29.89F HAZE    WCI  22
WARROAD        CLOUDY    30  27  86 S7        29.91S FOG     WCI  23
THIEF RVR FALL CLOUDY    30  28  93 S13       29.89F WCI  20
CROOKSTON      LGT SNOW  30  30 100 S14       29.90F WCI  20
FOSSTON        LGT SNOW  28  27  93 S15       29.90F WCI  17
DETROIT LAKES  CLOUDY    30  30 100 S18       29.93S FOG     WCI  18
MOORHEAD       CLOUDY    32  32 100 S20G29    29.92S FOG     WCI  20
PARK RAPIDS    CLOUDY    29  28  96 S17       29.95S FOG     WCI  17
MAHNOMEN       CLOUDY    30  28  94 S15G22    29.90F FOG     WCI  19
$$
MNZ006-009>011-018-025>026-210500-
   North Central Minnesota

CITY           SKY/WX    TMP DP  RH WIND       PRES   REMARKS
BAUDETTE       CLOUDY    30  27  88 S8        29.92F WCI  22
FLAG ISLAND    CLOUDY    28  27  93 S14       29.90F FOG     WCI  17
INTL FALLS     CLOUDY    29  27  92 S6        29.96F WCI  23
WASKISH        CLOUDY    30  28  93 S3        29.94S
BIG FORK       MIX PCPN  28  27  93 S12       29.98S WCI  18
LONGVILLE      CLOUDY    27  27 100 S14       29.98S WCI  15
GRAND RAPIDS   CLOUDY    27  25  93 S10G20    29.99F WCI  17
CRANE LAKE     CLOUDY    28  27  93 S7        30.02F FOG     WCI  21
ORR            CLOUDY    28  25  86 S7        29.96F FOG     WCI  21
COOK           CLOUDY    28  27  93 S7        30.00F FOG     WCI  21
WALKER         CLOUDY    28  27  95 S14       29.95F WCI  17
$$
MNZ012-019>021-037-210500-
   Northeast Minnesota

CITY           SKY/WX    TMP DP  RH WIND       PRES   REMARKS
DULUTH         CLOUDY    30  25  81 S14       30.04S WCI  19
ELY            CLOUDY    28  27  93 S12       30.02S WCI  18
HIBBING        CLOUDY    29  25  85 S8        30.01S WCI  21
EVELETH        CLOUDY    30  28  93 S8G16     30.03S FOG     WCI  23
DULUTH HARBOR  CLOUDY    34  28  80 S10       30.09F WCI  26
TWO HARBORS    CLOUDY    34  28  80 S8        30.05S WCI  27
SILVER BAY     CLOUDY    32  27  80 S10       30.05S WCI  24
GRAND MARAIS     N/A     35  29  78 S20       30.10S WCI  24
G MARAIS ARPRT CLOUDY    27  25  93 S6        30.04S FOG     WCI  20
$$
MNZ029>031-032-039>041-046>048-054>057-064-210500-
   West Central Minnesota

CITY           SKY/WX    TMP DP  RH WIND       PRES   REMARKS
FERGUS FALLS   CLOUDY    30  28  93 S15G23    29.98F FOG     WCI  19
WHEATON        CLOUDY    28  27  93 SE14      29.97F FOG     WCI  17
MORRIS         CLOUDY    30  28  93 S20       29.95F FOG     WCI  18
ALEXANDRIA     CLOUDY    29  27  92 S15       29.98S WCI  18
ELBOW LAKE     CLOUDY    29  28  97 S21       29.95S FOG     WCI  16
WADENA         CLOUDY    27  27 100 S13       29.96S FOG     WCI  16
GLENWOOD       CLOUDY    28  28 100 S16       29.99S FOG     WCI  17
APPLETON       CLOUDY    32  28  86 S13       29.97F WCI  22
BENSON         CLOUDY    30  28  93 S14G20    29.99S WCI  20
ORTONVILLE     CLOUDY    30  27  86 S10       29.95S FOG     WCI  21
MADISON        CLOUDY    34  32  93 S14       29.96F FOG     WCI  24
WILLMAR        CLOUDY    30  28  93 S10G17    30.01F WCI  21
$$
MNZ033>034-036-042>043-049>051-058-059-210500-
   Central Minnesota

CITY           SKY/WX    TMP DP  RH WIND       PRES   REMARKS
ST CLOUD       CLOUDY    31  25  78 S12       30.04F WCI  22
SAUK CENTRE    CLOUDY    29  28  94 SE16      30.00F WCI  17
PAYNESVILLE    CLOUDY    28  27  99 E12       30.02F WCI  17
AITKIN         CLOUDY    30  25  80 S13       30.01S WCI  20
PINE RIVER     CLOUDY    27  27 100 S10       30.02F WCI  17
BRAINERD       CLOUDY    27  25  92 S15G22    30.01F WCI  15
STAPLES        CLOUDY    27  27 100 S15       29.98F WCI  15
LONG PRAIRIE   CLOUDY    28  28 100 SE15      30.00F WCI  17
LITTLE FALLS   CLOUDY    30  27  86 S10G17    30.03F WCI  21
LITCHFIELD     CLOUDY    30  30 100 S6        30.03F WCI  24
BUFFALO        CLOUDY    31  27  85 SE5       30.07F WCI  26
MAPLE LAKE     CLOUDY    31  29  91 SE7       30.06F WCI  24
$$
MNZ037-044-045-052-053-210500-
   East Central Minnesota

CITY           SKY/WX    TMP DP  RH WIND       PRES   REMARKS
PRINCETON      CLOUDY    30  28  93 S9        30.07S WCI  22
MORA           CLOUDY    32  27  80 S14G20    30.08S WCI  22
CAMBRIDGE      CLOUDY    34  25  69 S9        30.06F WCI  26
RUSH CITY      CLOUDY    31  27  84 S10G16    30.08S WCI  23
MOOSE LAKE     CLOUDY    32  28  86 S12G17    30.03F WCI  23
HINCKLEY       CLOUDY    32  30  93 S15       30.07F WCI  22
CLOQUET        CLOUDY    28  27  93 S7        30.04F WCI  21
MCGREGOR       CLOUDY    30  28  93 S7G17     30.03F WCI  23
$$
MNZ071>073-080-081-089-090-097-098-210500-
   Southwest Minnesota

CITY           SKY/WX    TMP DP  RH WIND       PRES   REMARKS
MONTEVIDEO     CLOUDY    30  30 100 S10       29.99F WCI  21
GRANITE FALLS  CLOUDY    31  29  92 SE12      30.01F WCI  22
CANBY          CLOUDY    31  30  94 S10G17    29.97F FOG     WCI  23
MARSHALL       CLOUDY    30  27  86 S13       29.99S WCI  20
REDWOOD FALLS  CLOUDY    32  29  88 S14       30.01F WCI  22
OLIVIA         CLOUDY    32  30  93 S13       30.00F WCI  22
PIPESTONE      FOG       28  28 100 S6        29.96S VSB 1/2 WCI  22
WINDOM         CLOUDY    30  30 100 S12       30.00F WCI  21
WORTHINGTON    CLOUDY    30  28  93 S14G23    29.99F WCI  20
JACKSON        CLOUDY    32  30  93 S15       30.01F WCI  22
TRACY          CLOUDY    32  30  94 S12G21    29.98F WCI  23
SLAYTON        CLOUDY    29  29 100 S8        29.98F FOG     WCI  21
$$
MNZ065>067-074>077-082>085-091>093-210500-
   South Central Minnesota

CITY           SKY/WX    TMP DP  RH WIND       PRES   REMARKS
MANKATO        CLOUDY    30  27  86 S8        30.06F WCI  23
NEW ULM        CLOUDY    32  30  93 S12       30.04F WCI  23
ST JAMES       CLOUDY    34  30  86 S13G18    30.05F WCI  25
FAIRMONT       CLOUDY    32  28  86 S16G23    30.03F WCI  21
GLENCOE        CLOUDY    32  30  93 SE6       30.05F WCI  26
FARIBAULT      CLOUDY    30  27  86 SE9       30.09F WCI  22
OWATONNA       MOCLDY    30  27  86 SE9       30.08F WCI  22
WASECA         CLOUDY    32  30  93 SE8       30.09S WCI  25
ALBERT LEA     CLOUDY    30  30 100 S9        30.07F FOG     WCI  22
$$
MNZ078>079-086>088-094>096-210500-
   Southeast Minnesota

CITY           SKY/WX    TMP DP  RH WIND       PRES   REMARKS
ROCHESTER      CLOUDY    30  27  88 SE9       30.10F WCI  22
RED WING       CLOUDY    34  28  80 S10G17    30.12S WCI  26
STANTON        CLOUDY    32  28  83 S6        30.08F WCI  27
DODGE CENTER   CLOUDY    30  28  93 S9        30.08F WCI  22
WINONA         CLOUDY    34  32  93 S3        30.16S FOG
AUSTIN         CLOUDY    30  28  93 S7        30.08F FOG     WCI  23
PRESTON        CLOUDY    29  28  96 SE6       30.11F FOG     WCI  23
$$
ABBREVIATIONS USED IN REMARKS
   TC - TEMPERATURES IN CELSIUS
  WCI - WIND CHILL INDEX
   HX - HEAT INDEX
  VSB - VISIBILITY
$$


USA.gov is the U.S. government's official web portal to all federal, state and local government web resources and services.